FW1458 Weather Reports


Display with metric or nautical units.
time (UTC)temp
F
wind
direction
speed
MPH
gust
MPH
rain 1hr
in
rain 24hr
in
rain mn
in
humidity
%
barometer
mb
20260831000007 99 168 4.0 10.0 0.00 0.00 0.00 36 1010.6
20260830234505 100 171 3.0 11.0 0.00 0.00 0.00 35 1010.5
20260830233007 100 164 5.0 13.0 0.00 0.00 0.00 35 1010.5
20260830231502 101 165 3.0 9.0 0.00 0.00 0.00 34 1010.4
20260830230001 101 157 4.0 8.0 0.00 0.00 0.00 34 1010.4
20260830224607 100 186 4.0 10.0 0.00 0.00 0.00 35 1010.2
20260830223059 99 210 2.0 12.0 0.00 0.00 0.00 35 1010.3
20260830221600 101 175 3.0 12.0 0.00 0.00 0.00 33 1010.5
20260830220103 103 163 4.0 14.0 0.00 0.00 0.00 33 1010.6
20260830214558 102 173 3.0 15.0 0.00 0.00 0.00 34 1010.6
20260830213053 103 154 5.0 18.0 0.00 0.00 0.00 33 1010.7
20260830211553 102 203 4.0 11.0 0.00 0.00 0.00 34 1010.9
20260830210049 102 238 4.0 13.0 0.00 0.00 0.00 33 1011.2
20260830204555 102 327 4.0 10.0 0.00 0.00 0.00 34 1011.3
20260830203043 101 250 5.0 12.0 0.00 0.00 0.00 35 1011.4
20260830201555 101 211 5.0 11.0 0.00 0.00 0.00 35 1011.7
20260830200044 101 263 3.0 13.0 0.00 0.00 0.00 36 1011.8
20260830194541 101 236 4.0 12.0 0.00 0.00 0.00 35 1012.0
20260830193038 101 202 7.0 14.0 0.00 0.00 0.00 37 1012.2
20260830191612 101 174 4.0 14.0 0.00 0.00 0.00 37 1012.2
20260830190052 101 238 4.0 14.0 0.00 0.00 0.00 37 1012.4
20260830184531 100 239 5.0 15.0 0.00 0.00 0.00 39 1012.5
20260830183026 98 180 5.0 13.0 0.00 0.00 0.00 41 1012.7
20260830181523 97 170 6.0 11.0 0.00 0.00 0.00 42 1012.8
20260830180031 97 266 5.0 11.0 0.00 0.00 0.00 44 1013.1
20260830174520 97 267 3.0 10.0 0.00 0.00 0.00 45 1013.3
20260830173021 97 234 6.0 12.0 0.00 0.00 0.00 44 1013.6
20260830171516 96 183 5.0 10.0 0.00 0.00 0.00 45 1013.9
20260830170011 95 202 4.0 10.0 0.00 0.00 0.00 46 1014.0
20260830164509 95 266 7.0 19.0 0.00 0.00 0.00 46 1014.1
20260830163018 95 205 3.0 8.0 0.00 0.00 0.00 47 1014.2
20260830161502 93 175 5.0 9.0 0.00 0.00 0.00 49 1014.2
20260830160103 92 169 6.0 11.0 0.00 0.00 0.00 50 1014.2
20260830154604 90 176 6.0 12.0 0.00 0.00 0.00 51 1014.3
20260830153053 89 173 6.0 14.0 0.00 0.00 0.00 52 1014.3
20260830151548 88 169 7.0 11.0 0.00 0.00 0.00 54 1014.4
20260830150047 87 167 7.0 17.0 0.00 0.00 0.00 55 1014.4
20260830144643 85 162 5.0 15.0 0.00 0.00 0.00 56 1014.6
20260830143037 84 212 5.0 12.0 0.00 0.00 0.00 56 1014.6
20260830141541 83 229 5.0 12.0 0.00 0.00 0.00 58 1014.6
20260830140037 80 220 2.0 8.0 0.00 0.00 0.00 62 1014.6
20260830134539 78 158 3.0 6.0 0.00 0.00 0.00 65 1014.6
20260830133042 77 180 3.0 8.0 0.00 0.00 0.00 67 1014.6
20260830131550 75 163 3.0 6.0 0.00 0.00 0.00 69 1014.8
20260830130040 74 178 2.0 5.0 0.00 0.00 0.00 70 1014.6
20260830124532 74 172 2.0 6.0 0.00 0.00 0.00 71 1014.5
20260830123031 74 159 2.0 6.0 0.00 0.00 0.00 71 1014.4
20260830121528 74 162 2.0 4.0 0.00 0.00 0.00 71 1014.4
20260830120029 74 181 1.0 6.0 0.00 0.00 0.00 70 1014.3
20260830114527 74 165 2.0 4.0 0.00 0.00 0.00 70 1014.3
20260830113025 75 176 2.0 6.0 0.00 0.00 0.00 69 1014.2
20260830111530 75 165 2.0 5.0 0.00 0.00 0.00 69 1014.1
20260830110020 75 148 2.0 6.0 0.00 0.00 0.00 68 1014.2
20260830104524 76 165 2.0 6.0 0.00 0.00 0.00 68 1014.2
20260830103018 76 143 1.0 5.0 0.00 0.00 0.00 68 1013.8
20260830101517 76 175 1.0 5.0 0.00 0.00 0.00 68 1013.7
20260830100015 76 166 0.0 3.0 0.00 0.00 0.00 67 1013.7
20260830094514 76 171 1.0 2.0 0.00 0.00 0.00 67 1013.7
20260830093022 77 159 1.0 4.0 0.00 0.00 0.00 66 1013.7
20260830091517 77 157 1.0 3.0 0.00 0.00 0.00 65 1013.5
20260830090008 78 142 1.0 3.0 0.00 0.00 0.00 64 1013.4
20260830084506 78 146 1.0 4.0 0.00 0.00 0.00 64 1013.4
20260830083009 78 113 2.0 6.0 0.00 0.00 0.00 63 1013.1
20260830081508 78 189 1.0 3.0 0.00 0.00 0.00 62 1013.0
20260830080001 79 167 0.0 5.0 0.00 0.00 0.00 62 1013.0
20260830074600 79 165 1.0 5.0 0.00 0.00 0.00 61 1012.9
20260830073056 79 171 1.0 4.0 0.00 0.00 0.00 59 1013.1
20260830071607 80 85 2.0 6.0 0.00 0.00 0.00 58 1013.1
20260830070109 80 202 2.0 5.0 0.00 0.00 0.00 57 1013.2
20260830064551 81 110 3.0 5.0 0.00 0.00 0.00 56 1013.2
20260830063054 81 153 4.0 7.0 0.00 0.00 0.00 56 1013.2
20260830061548 82 161 2.0 5.0 0.00 0.00 0.00 55 1013.1
20260830060052 82 191 1.0 9.0 0.00 0.00 0.00 54 1013.3
20260830054543 83 186 3.0 8.0 0.00 0.00 0.00 53 1013.1
20260830053040 83 186 3.0 10.0 0.00 0.00 0.00 52 1013.1
20260830051540 84 182 3.0 9.0 0.00 0.00 0.00 52 1013.2
20260830050135 84 132 3.0 9.0 0.00 0.00 0.00 51 1013.2
20260830044542 85 174 4.0 12.0 0.00 0.00 0.00 51 1013.2
20260830043036 85 182 2.0 5.0 0.00 0.00 0.00 50 1013.2
20260830041552 85 149 2.0 6.0 0.00 0.00 0.00 50 1013.0
20260830040044 86 200 4.0 9.0 0.00 0.00 0.00 50 1013.1
20260830034532 86 70 3.0 9.0 0.00 0.00 0.00 50 1013.0
20260830033038 87 181 3.0 7.0 0.00 0.00 0.00 49 1012.8
20260830031535 87 147 1.0 7.0 0.00 0.00 0.00 49 1012.9
20260830030040 87 165 2.0 5.0 0.00 0.00 0.00 49 1012.7
20260830024535 88 173 2.0 5.0 0.00 0.00 0.00 48 1012.6
20260830023053 88 138 1.0 5.0 0.00 0.00 0.00 47 1012.6
20260830021529 89 181 1.0 5.0 0.00 0.00 0.00 46 1012.3
20260830020038 90 130 1.0 4.0 0.00 0.00 0.00 45 1012.1
20260830014529 90 169 1.0 4.0 0.00 0.00 0.00 44 1011.9
20260830013028 91 151 2.0 4.0 0.00 0.00 0.00 44 1011.7
20260830011531 92 142 1.0 3.0 0.00 0.00 0.00 43 1011.7
20260830010027 93 169 1.0 5.0 0.00 0.00 0.00 42 1011.7
20260830004531 94 161 2.0 5.0 0.00 0.00 0.00 41 1011.8
20260830003041 96 168 2.0 6.0 0.00 0.00 0.00 40 1012.0
20260830001529 97 125 3.0 9.0 0.00 0.00 0.00 39 1012.0